LAPAN-A2

Last updated on Tue Dec 03 2024 00:02:26 GMT+0000 (Coordinated Universal Time)

1 40931U 15052B 24337.09180034 .00002217 00000+0 20975-3 0 9991 2 40931 5.9986 232.5457 0013173 302.5393 57.3463 14.78392648496340
UTC large
Height (km)
Speed (km/s)
/
Latitude / Longitude
Inclination (degrees)
Orbital Period (minutes)
Azimuth
Elevation
Range (km)
Doppler Factor

Next 0 passes for location: London (51.5072 / 0.1276)

Sorry there are no passes over London.